Back to catalog

STARLINK-35605

AliveCommunicationsVLEO
NORAD 66150·PAYLOAD·🇺🇸 United States

Launched Oct 25, 2025 from Cape Canaveral Space Force Station

Loading…

Next Passes (next 24 hours)

TLE

FreshSource: CelesTrak SupGP

Epoch: Sep 14, 2026, 22:34 UTC

1 66150C 25240E   26257.94076389  .00042195  00000+0  12467-2 0  2578
2 66150  53.1566 261.3501 0001234  96.9580  48.1083 15.34368666    14

Track STARLINK-35605 in real time with AllMySat

Download on the App Store